EW6604 Weather Reports


time (UTC)temp
C
wind
direction
speed
KPH
gust
KPH
rain 1hr
cm
rain 24hr
cm
rain mn
cm
humidity
%
barometer
mb
20260510171213 30 267 6.4 17.7 0.00 1.09 0.03 67 1015.5
20260510170730 30 285 6.4 20.9 0.00 1.09 0.03 67 1015.6
20260510170221 30 276 9.7 14.5 0.00 1.09 0.03 68 1015.7
20260510165725 30 289 1.6 12.9 0.00 1.09 0.03 69 1015.7
20260510165220 29 282 6.4 12.9 0.00 1.09 0.03 69 1015.8
20260510164716 29 284 6.4 11.3 0.00 1.09 0.03 71 1015.9
20260510164216 29 292 1.6 9.7 0.00 1.09 0.03 73 1015.9
20260510163744 28 307 1.6 11.3 0.00 1.09 0.03 71 1016.1
20260510163217 28 258 8.0 14.5 0.00 1.09 0.03 72 1016.3
20260510162728 28 267 9.7 14.5 0.00 1.09 0.03 72 1016.3
20260510162225 28 286 9.7 14.5 0.00 1.09 0.03 72 1016.4
20260510161714 28 277 6.4 14.5 0.00 1.09 0.03 73 1016.4
20260510160303 28 310 4.8 6.4 0.00 1.09 0.03 77 1016.5
20260510155726 28 355 1.6 6.4 0.00 1.09 0.03 78 1016.6
20260510155211 28 272 4.8 6.4 0.00 1.09 0.03 78 1016.6
20260510154718 28 309 0.0 3.2 0.00 1.09 0.03 80 1016.6
20260510154222 27 269 3.2 4.8 0.00 1.09 0.03 80 1016.6
20260510153727 27 307 3.2 6.4 0.00 1.09 0.03 80 1016.7
20260510153230 27 274 3.2 8.0 0.00 1.09 0.03 80 1016.7
20260510152714 27 274 6.4 9.7 0.00 1.09 0.03 81 1016.7
20260510152237 27 283 4.8 11.3 0.00 1.09 0.03 80 1016.8
20260510151721 27 280 8.0 11.3 0.00 1.09 0.03 81 1016.7
20260510151225 27 250 6.4 11.3 0.00 1.09 0.03 81 1016.7
20260510150728 27 280 6.4 11.3 0.00 1.09 0.03 80 1016.7
20260510150213 27 44 3.2 8.0 0.00 1.09 0.03 80 1016.6
20260510145716 27 222 1.6 4.8 0.00 1.09 0.03 81 1016.6
20260510145225 27 201 1.6 6.4 0.00 1.09 0.03 81 1016.6
20260510144749 27 304 1.6 12.9 0.00 1.09 0.03 81 1016.5
20260510144212 27 272 3.2 6.4 0.00 1.09 0.03 81 1016.5
20260510143717 27 238 3.2 6.4 0.00 1.09 0.03 80 1016.5
20260510143221 27 239 3.2 9.7 0.00 1.09 0.03 81 1016.4
20260510142726 27 319 4.8 9.7 0.00 1.09 0.03 81 1016.4
20260510142229 27 102 3.2 8.0 0.00 1.09 0.03 82 1016.4
20260510141711 27 272 1.6 4.8 0.00 1.09 0.03 83 1016.4
20260510140725 26 196 1.6 8.0 0.00 1.09 0.03 84 1016.3
20260510140225 26 269 3.2 9.7 0.00 1.09 0.03 85 1016.3
20260510135726 26 161 1.6 9.7 0.00 1.09 0.03 87 1016.2
20260510135218 26 277 3.2 9.7 0.00 1.09 0.03 88 1016.1
20260510134714 26 269 1.6 8.0 0.00 1.09 0.03 89 1016.1
20260510134251 26 262 0.0 8.0 0.00 1.09 0.03 90 1016.1
20260510133731 25 255 1.6 4.8 0.00 1.09 0.03 92 1016.1
20260510133223 25 274 0.0 4.8 0.00 1.09 0.03 93 1015.9
20260510132223 25 135 0.0 1.6 0.00 1.09 0.03 94 1016.0
20260510131732 24 257 0.0 3.2 0.00 1.09 0.03 94 1016.0
20260510131228 24 250 1.6 3.2 0.00 1.09 0.03 94 1016.1
20260510130722 24 51 0.0 1.6 0.00 1.09 0.03 95 1016.0
20260510130214 24 155 0.0 3.2 0.00 1.09 0.03 95 1016.0
20260510125749 23 276 0.0 4.8 0.00 1.09 0.03 95 1016.1
20260510125223 23 260 3.2 4.8 0.00 1.09 0.03 95 1016.0
20260510124716 23 241 0.0 1.6 0.00 1.09 0.03 96 1016.0
20260510123737 23 241 0.0 1.6 0.00 1.09 0.03 96 1015.9
20260510122726 23 216 0.0 1.6 0.00 1.09 0.03 96 1015.7
20260510121306 23 216 0.0 1.6 0.00 1.09 0.03 96 1015.4
20260510120714 23 216 0.0 0.0 0.00 1.09 0.03 96 1015.4
20260510120241 23 215 0.0 0.0 0.00 1.09 0.03 96 1015.3
20260510115737 22 215 0.0 0.0 0.00 1.09 0.03 96 1015.2
20260510115215 22 215 0.0 0.0 0.00 1.09 0.03 96 1015.1
20260510114743 22 215 0.0 0.0 0.00 1.09 0.03 96 1015.1
20260510114215 22 215 0.0 0.0 0.00 1.09 0.03 96 1014.9
20260510113723 22 215 0.0 0.0 0.00 1.09 0.03 96 1015.0
20260510113229 22 215 0.0 0.0 0.00 1.09 0.03 96 1014.9
20260510112713 22 215 0.0 0.0 0.03 1.09 0.03 96 1014.8
20260510112250 22 215 0.0 0.0 0.03 1.09 0.03 96 1014.8
20260510111712 22 215 0.0 0.0 0.03 1.09 0.03 96 1014.7
20260510111220 22 215 0.0 0.0 0.03 1.09 0.03 96 1014.6
20260510110724 22 215 0.0 0.0 0.03 1.09 0.03 96 1014.5
20260510110221 22 215 0.0 0.0 0.03 1.09 0.03 96 1014.5
20260510105726 22 215 0.0 0.0 0.03 1.09 0.03 96 1014.4
20260510105234 22 215 0.0 0.0 0.03 1.09 0.03 96 1014.4
20260510104715 22 215 0.0 0.0 0.03 1.09 0.03 96 1014.3
20260510104240 22 215 0.0 0.0 0.03 1.09 0.03 96 1014.3
20260510103723 22 215 0.0 0.0 0.03 1.09 0.03 96 1014.2
20260510103230 22 215 0.0 0.0 0.03 1.09 0.03 96 1014.2
20260510102714 22 215 0.0 0.0 0.00 1.07 0.00 96 1014.1
20260510102218 22 215 0.0 0.0 0.00 1.07 0.00 96 1014.1
20260510101723 22 215 0.0 0.0 0.00 1.07 0.00 96 1014.0
20260510101248 22 215 0.0 0.0 0.00 1.07 0.00 96 1013.9
20260510100713 22 215 0.0 0.0 0.00 1.07 0.00 96 1013.9
20260510100218 22 215 0.0 0.0 0.00 1.07 0.00 96 1013.7
20260510095731 22 215 0.0 0.0 0.00 1.07 0.00 96 1013.7
20260510095216 22 215 0.0 0.0 0.00 1.07 0.00 96 1013.7
20260510094719 22 215 0.0 0.0 0.00 1.07 0.00 96 1013.7
20260510094225 22 215 0.0 0.0 0.00 1.07 0.00 96 1013.7
20260510093730 22 215 0.0 0.0 0.00 1.07 0.00 96 1013.5
20260510093215 22 215 0.0 0.0 0.00 1.07 0.00 96 1013.4
20260510092724 22 215 0.0 0.0 0.00 1.07 0.00 96 1013.5
20260510092240 22 215 0.0 0.0 0.00 1.07 0.00 96 1013.5
20260510091743 22 215 0.0 0.0 0.00 1.07 0.00 96 1013.6
20260510091227 22 215 0.0 0.0 0.00 1.07 0.00 96 1013.5
20260510090731 22 215 0.0 0.0 0.00 1.07 0.00 96 1013.4
20260510090217 22 215 0.0 0.0 0.00 1.07 0.00 96 1013.3
20260510085722 22 219 0.0 1.6 0.00 1.07 0.00 96 1013.2
20260510085227 22 219 0.0 3.2 0.00 1.07 0.00 96 1013.1
20260510084722 22 186 0.0 4.8 0.00 1.07 0.00 96 1013.0
20260510084227 22 134 1.6 4.8 0.00 1.07 0.00 96 1013.0
20260510083728 22 152 1.6 4.8 0.00 1.07 0.00 96 1013.1
20260510083214 22 182 1.6 4.8 0.00 1.07 0.00 96 1013.0
20260510082719 22 188 1.6 3.2 0.00 1.07 0.00 96 1013.0
20260510082227 22 153 0.0 3.2 0.00 1.07 0.00 96 1013.0
20260510081752 22 203 0.0 3.2 0.00 1.07 0.00 96 1013.0
20260510081216 22 210 0.0 1.6 0.00 1.07 0.00 96 1012.9
20260510080724 22 199 0.0 6.4 0.00 1.07 0.00 96 1012.8
20260510080229 22 179 1.6 6.4 0.00 1.07 0.00 96 1012.9
20260510075733 22 117 0.0 1.6 0.00 1.07 0.00 96 1012.8
20260510075216 22 194 0.0 3.2 0.00 1.07 0.00 96 1012.7
20260510074721 22 154 0.0 3.2 0.00 1.07 0.00 96 1012.7
20260510074223 22 139 0.0 1.6 0.00 1.07 0.00 96 1012.7
20260510073727 22 191 0.0 3.2 0.00 1.07 0.00 96 1012.8
20260510073231 22 187 1.6 3.2 0.00 1.07 0.00 96 1013.0
20260510072733 22 161 1.6 3.2 0.00 1.07 0.00 96 1013.1
20260510072216 22 201 0.0 3.2 0.00 1.07 0.00 96 1013.2
20260510071721 22 177 1.6 3.2 0.00 1.07 0.00 96 1013.2
20260510071229 22 162 1.6 3.2 0.00 1.07 0.00 96 1013.2
20260510070714 22 152 1.6 3.2 0.00 1.07 0.00 96 1013.2
20260510070220 22 164 1.6 3.2 0.00 1.07 0.00 96 1013.3
20260510065724 22 150 0.0 1.6 0.00 1.07 0.00 96 1013.3
20260510065229 22 150 0.0 3.2 0.00 1.07 0.00 96 1013.3
20260510064734 22 196 0.0 3.2 0.00 1.07 0.00 96 1013.4
20260510064217 22 256 0.0 3.2 0.00 1.07 0.00 96 1013.4
20260510063722 22 209 0.0 3.2 0.00 1.07 0.00 96 1013.5
20260510063228 22 192 1.6 4.8 0.00 1.07 0.00 96 1013.6
20260510062713 22 175 0.0 1.6 0.00 1.07 0.00 96 1013.7
20260510062217 22 193 0.0 1.6 0.00 1.07 0.00 96 1013.8
20260510061712 22 199 0.0 0.0 0.00 1.07 0.00 96 1013.8
20260510061221 22 199 0.0 0.0 0.00 1.07 0.00 96 1013.9
20260510060725 22 202 0.0 0.0 0.00 1.07 0.00 96 1014.0
20260510060231 22 202 0.0 0.0 0.00 1.07 0.00 96 1014.0
20260510055715 22 202 0.0 0.0 0.00 1.07 0.00 96 1014.1
20260510055220 22 202 0.0 1.6 0.00 1.07 0.00 96 1014.1
20260510054745 22 202 0.0 1.6 0.00 1.07 0.00 95 1014.2
20260510054249 22 205 0.0 1.6 0.00 1.07 0.00 95 1014.3
20260510053713 22 205 0.0 1.6 0.00 1.07 0.00 95 1014.3
20260510053219 22 213 0.0 3.2 0.00 1.07 0.00 96 1014.4
20260510052724 22 215 1.6 3.2 0.00 1.07 0.00 96 1014.4
20260510052230 22 202 0.0 1.6 0.00 1.07 0.00 95 1014.5
20260510051716 22 130 0.0 0.0 0.00 1.07 0.00 95 1014.5
20260510051221 22 191 0.0 0.0 0.00 1.07 0.00 95 1014.6
20260510050731 22 191 0.0 0.0 0.00 1.07 0.00 95 1014.7
20260510050217 22 191 0.0 0.0 0.00 1.07 0.00 95 1014.7
20260510045723 22 191 0.0 0.0 0.00 1.07 0.00 95 1014.7
20260510045229 22 191 0.0 0.0 0.00 1.07 0.00 95 1014.7
20260510044715 22 191 0.0 0.0 0.00 1.07 0.00 95 1014.7
20260510044221 22 191 0.0 0.0 0.00 1.07 0.00 95 1014.9
20260510043720 22 191 0.0 0.0 0.00 1.07 0.00 95 1014.9
20260510043226 22 154 0.0 0.0 0.00 1.07 0.00 95 1014.8
20260510042744 22 154 0.0 0.0 0.00 1.07 0.00 95 1014.9
20260510042248 22 154 0.0 0.0 0.00 1.07 0.00 95 1014.8
20260510041731 22 154 0.0 0.0 0.00 1.07 0.00 95 1014.9
20260510041236 22 154 0.0 0.0 0.00 1.07 0.00 95 1014.9
20260510040720 22 154 0.0 0.0 0.00 1.07 0.00 95 1015.0
20260510040229 22 155 0.0 1.6 0.00 1.07 0.00 95 1014.9
20260510035713 22 155 0.0 1.6 0.00 1.07 1.07 95 1015.0
20260510035218 22 105 0.0 1.6 0.00 1.07 1.07 95 1015.0
20260510034722 22 190 0.0 0.0 0.00 1.07 1.07 95 1015.0
20260510034228 22 190 0.0 0.0 0.00 1.07 1.07 95 1015.0
20260510033745 22 189 0.0 0.0 0.00 1.07 1.07 95 1015.0
20260510033229 22 190 0.0 0.0 0.00 1.07 1.07 95 1015.0
20260510032717 22 190 0.0 0.0 0.00 1.07 1.07 95 1015.0
20260510032242 22 190 0.0 0.0 0.00 1.07 1.07 95 1014.9
20260510031746 22 190 0.0 0.0 0.00 1.07 1.07 95 1014.9
20260510031230 22 190 0.0 0.0 0.00 1.07 1.07 95 1015.0
20260510030713 22 190 0.0 0.0 0.00 1.07 1.07 95 1015.0
20260510030230 22 190 0.0 1.6 0.00 1.07 1.07 94 1015.1
20260510025713 22 190 0.0 1.6 0.00 1.07 1.07 94 1014.9
20260510025238 22 191 0.0 1.6 0.00 1.07 1.07 94 1014.8
20260510024722 22 192 0.0 1.6 0.00 1.07 1.07 94 1014.8
20260510024226 22 193 0.0 1.6 0.00 1.07 1.07 94 1014.9
20260510023730 22 193 0.0 1.6 0.00 1.07 1.07 94 1014.8
20260510023216 22 192 0.0 1.6 0.00 1.07 1.07 94 1014.7
20260510022720 22 189 0.0 1.6 0.00 1.07 1.07 94 1014.5
20260510022224 22 188 0.0 1.6 0.00 1.07 1.07 94 1014.4
20260510021713 22 189 0.0 1.6 0.00 1.07 1.07 94 1014.4
20260510021217 22 189 0.0 1.6 0.00 1.07 1.07 94 1014.4
20260510020715 22 189 0.0 1.6 0.00 1.07 1.07 94 1014.4
20260510020220 23 198 0.0 3.2 0.00 1.07 1.07 93 1014.4
20260510015725 23 163 1.6 3.2 0.00 1.07 1.07 93 1014.3
20260510015229 23 158 0.0 3.2 0.00 1.07 1.07 93 1014.2
20260510014724 23 151 1.6 3.2 0.00 1.07 1.07 93 1014.2
20260510014229 23 193 0.0 3.2 0.00 1.07 1.07 93 1014.3
20260510013726 23 163 0.0 3.2 0.00 1.07 1.07 92 1014.2
20260510013230 23 93 1.6 8.0 0.00 1.07 1.07 92 1013.9
20260510012734 23 178 1.6 8.0 0.00 1.07 1.07 92 1013.9
20260510012218 23 94 0.0 4.8 0.00 1.07 1.07 92 1013.8
20260510011714 23 130 1.6 14.5 0.00 1.07 1.07 91 1013.8
20260510011239 24 154 4.8 14.5 0.00 1.07 1.07 91 1013.8
20260510010727 24 79 11.3 14.5 0.00 1.07 1.07 91 1013.5
20260510010231 24 71 8.0 12.9 0.00 1.07 1.07 91 1013.6
20260510005715 24 70 9.7 12.9 0.00 1.07 1.07 91 1013.7
20260510005220 24 72 8.0 9.7 0.00 1.07 1.07 92 1013.8
20260510004724 24 66 6.4 9.7 0.00 1.07 1.07 92 1013.9
20260510004229 24 74 6.4 8.0 0.00 1.07 1.07 92 1013.8
20260510003714 24 56 6.4 8.0 0.00 1.07 1.07 92 1013.7
20260510003219 24 55 6.4 11.3 0.00 1.07 1.07 92 1013.7
20260510002712 24 54 8.0 11.3 0.00 1.07 1.07 92 1013.5
20260510002217 24 58 8.0 9.7 0.00 1.07 1.07 91 1013.5
20260510001742 24 47 6.4 9.7 0.00 1.07 1.07 91 1013.5
20260510001226 24 57 8.0 11.3 0.00 1.07 1.07 91 1013.3
20260510000752 24 36 8.0 12.9 0.00 1.07 1.07 91 1013.1
20260510000215 24 45 9.7 12.9 0.00 1.07 1.07 91 1013.1
20260509235724 24 25 9.7 12.9 0.00 1.07 1.07 91 1013.2
20260509235229 24 30 6.4 8.0 0.00 1.07 1.07 91 1013.2
20260509234714 24 12 6.4 8.0 0.00 1.07 1.07 90 1013.2
20260509234229 24 13 6.4 8.0 0.00 1.07 1.07 90 1013.2
20260509233713 24 30 4.8 6.4 0.00 1.07 1.07 90 1013.1
20260509233218 24 38 4.8 9.7 0.00 1.07 1.07 90 1013.0
20260509232723 25 30 6.4 9.7 0.00 1.07 1.07 90 1013.0
20260509232226 25 37 8.0 11.3 0.00 1.07 1.07 90 1013.0
20260509231731 25 359 4.8 11.3 0.00 1.07 1.07 89 1013.1
20260509231216 25 8 6.4 11.3 0.00 1.07 1.07 90 1013.1
20260509230718 25 345 8.0 9.7 0.00 1.07 1.07 89 1013.0
20260509230240 25 324 6.4 12.9 0.00 1.07 1.07 89 1013.1
20260509225743 25 343 6.4 12.9 0.00 2.08 1.07 89 1012.9
20260509225230 25 338 8.0 11.3 0.00 2.08 1.07 90 1012.8
20260509224715 25 357 8.0 11.3 0.00 2.08 1.07 89 1012.6
20260509224220 25 337 6.4 12.9 0.00 2.08 1.07 89 1012.6
20260509223724 25 343 8.0 12.9 0.00 2.08 1.07 89 1012.6
20260509223228 25 336 8.0 11.3 0.00 2.08 1.07 89 1012.6
20260509222713 25 338 8.0 11.3 0.00 2.08 1.07 89 1012.6
20260509222237 25 333 8.0 12.9 0.00 2.08 1.07 89 1012.6
20260509221721 25 333 9.7 12.9 0.00 2.08 1.07 89 1012.5
20260509221225 25 329 9.7 12.9 0.00 2.08 1.07 90 1012.5
20260509220717 25 326 8.0 12.9 0.00 2.08 1.07 91 1012.5
20260509220221 25 328 8.0 11.3 0.00 2.08 1.07 91 1012.5
20260509215726 24 352 6.4 12.9 0.00 2.57 1.07 91 1012.6
20260509215235 24 336 6.4 12.9 0.00 2.57 1.07 92 1012.5
20260509214719 24 353 6.4 14.5 0.00 2.57 1.07 92 1012.5
20260509214243 24 13 8.0 14.5 0.00 2.57 1.07 93 1012.5
20260509213727 24 25 11.3 14.5 0.00 2.57 1.07 93 1012.4
20260509213231 24 16 9.7 12.9 0.00 2.57 1.07 93 1012.4
20260509212718 24 17 6.4 12.9 0.00 2.57 1.07 93 1012.6
20260509212238 24 9 8.0 17.7 0.00 2.57 1.07 93 1012.6
20260509211722 24 321 11.3 17.7 0.00 2.57 1.07 93 1012.5
20260509211226 24 321 11.3 20.9 0.00 2.57 1.07 93 1012.5
20260509210730 23 332 14.5 20.9 0.00 2.57 1.07 93 1012.5
20260509210215 24 11 12.9 20.9 0.00 2.57 1.07 93 1012.6
20260509205739 24 338 14.5 22.5 0.00 2.57 1.07 93 1012.6
20260509205242 24 5 14.5 25.7 0.00 2.57 1.07 93 1012.4
20260509204745 24 359 12.9 19.3 0.00 2.57 1.07 93 1012.4
20260509204228 24 338 14.5 20.9 0.00 2.57 1.07 93 1012.4
20260509203713 24 352 16.1 20.9 0.00 2.57 1.07 92 1012.2
20260509203218 24 327 12.9 14.5 0.00 2.57 1.07 93 1012.2
20260509202722 24 330 11.3 14.5 0.00 2.57 1.07 94 1012.3
20260509202226 23 340 6.4 8.0 0.00 2.57 1.07 93 1012.1
20260509201728 23 349 4.8 6.4 0.03 2.57 1.07 94 1012.1
20260509201231 23 71 3.2 3.2 0.23 2.57 1.07 93 1012.0
20260509200726 23 54 1.6 6.4 1.04 2.57 1.07 93 1012.0
20260509200230 23 21 3.2 8.0 1.07 2.57 1.07 93 1012.0
20260509195715 23 350 3.2 11.3 1.07 2.57 1.07 93 1012.0
20260509195219 23 330 6.4 11.3 1.07 2.57 1.07 93 1011.9
20260509194723 23 9 8.0 11.3 1.07 2.57 1.07 93 1012.0
20260509194228 23 25 6.4 12.9 1.07 2.57 1.07 92 1012.2
20260509193715 23 49 6.4 12.9 1.07 2.57 1.07 92 1012.3
20260509193220 23 30 4.8 16.1 1.07 2.57 1.07 92 1012.5
20260509192717 23 40 9.7 16.1 1.07 2.57 1.07 92 1012.4
20260509192222 23 31 4.8 22.5 1.04 2.54 1.04 92 1012.3
20260509191727 23 323 8.0 40.2 1.04 2.54 1.04 90 1012.4
20260509191231 25 246 30.6 40.2 0.74 2.24 0.81 86 1012.9
20260509190727 28 279 20.9 29.0 0.03 1.52 0.03 80 1012.6
20260509190231 28 1 8.0 9.7 0.00 1.50 0.00 77 1011.7
20260509185730 28 356 4.8 6.4 0.00 1.50 0.00 77 1011.7
20260509185214 28 10 4.8 8.0 0.00 1.50 0.00 78 1011.9
20260509184718 28 18 6.4 8.0 0.00 1.50 0.00 76 1011.9
20260509184226 28 36 6.4 8.0 0.00 1.50 0.00 75 1011.9
20260509183730 28 33 6.4 9.7 0.00 1.50 0.00 77 1012.1
20260509183215 28 31 6.4 9.7 0.00 1.50 0.00 77 1012.1
20260509182719 28 18 8.0 11.3 0.00 1.50 0.00 77 1012.2
20260509182240 28 15 9.7 11.3 0.00 1.50 0.00 78 1012.3
20260509181721 28 15 8.0 11.3 0.00 1.50 0.00 78 1012.4
20260509181223 28 7 8.0 12.9 0.00 1.50 0.00 78 1012.5
20260509180724 27 14 9.7 12.9 0.00 1.50 0.00 78 1012.6
20260509180247 27 20 9.7 12.9 0.00 1.50 0.00 78 1012.6
20260509175729 27 24 9.7 12.9 0.00 1.50 0.00 80 1012.7
20260509175230 27 347 9.7 14.5 0.00 1.50 0.00 80 1012.8
20260509174712 27 360 11.3 14.5 0.00 1.50 0.00 81 1012.8
20260509174217 27 6 11.3 14.5 0.00 1.50 0.00 80 1012.8
20260509173719 27 7 11.3 12.9 0.00 1.50 0.00 80 1012.8
20260509173222 27 352 8.0 12.9 0.00 1.50 0.00 80 1012.8
20260509172731 27 4 9.7 12.9 0.00 1.50 0.00 80 1012.8
20260509172214 27 13 8.0 11.3 0.00 1.50 0.00 80 1012.9
20260509171729 27 12 9.7 16.1 0.00 1.50 0.00 79 1012.9